This demonstration page uses our WeatherBlox Daily Observations layout. Learn more.

Hourly Observations for November 25, 2016

Temp ( °F °C ) Dew Point ( °F °C ) Humidity (%) Winds ( mph kmh ) Pressure ( in mb ) Visibility ( mi km ) Precip ( " mm )
12:15 am 00:15 Clear 36 2 34 1 93 93 undefined N/A 30.27 1025 10 16.09344 0 0
12:35 am 00:35 Mostly Cloudy 37 3 36 2 93 93 undefined N/A 30.27 1025 10 16.09344 0 0
12:55 am 00:55 Cloudy 37 3 36 2 93 93 undefined N/A 30.27 1025 10 16.09344 0 0
1:15 am 01:15 Cloudy 37 3 37 3 100 100 undefined N/A 30.27 1025 10 16.09344 0 0
1:35 am 01:35 Cloudy 41 5 37 3 87 87 undefined N/A 30.27 1025 10 16.09344 0 0
1:55 am 01:55 Cloudy 45 7 39 4 81 81 undefined N/A 30.27 1025 10 16.09344 0 0
2:15 am 02:15 Cloudy 45 7 39 4 81 81 undefined N/A 30.27 1025 10 16.09344 0 0
2:35 am 02:35 Cloudy 45 7 39 4 81 81 undefined N/A 30.3 1026 10 16.09344 0 0
2:55 am 02:55 Cloudy 43 6 39 4 87 87 undefined N/A 30.27 1025 10 16.09344 0 0
3:15 am 03:15 Cloudy 43 6 39 4 87 87 undefined N/A 30.27 1025 10 16.09344 0 0
3:35 am 03:35 Mostly Cloudy 43 6 39 4 87 87 undefined N/A 30.27 1025 10 16.09344 0 0
3:55 am 03:55 Cloudy 43 6 39 4 87 87 undefined N/A 30.27 1025 10 16.09344 0 0
4:15 am 04:15 Cloudy 43 6 39 4 87 87 undefined N/A 30.27 1025 10 16.09344 0 0
4:35 am 04:35 Cloudy 43 6 41 5 93 93 undefined N/A 30.27 1025 10 16.09344 0 0
4:55 am 04:55 Cloudy 43 6 41 5 93 93 undefined N/A 30.27 1025 10 16.09344 0 0
5:15 am 05:15 Cloudy 41 5 39 4 93 93 undefined N/A 30.27 1025 10 16.09344 0 0
5:35 am 05:35 Cloudy 43 6 41 5 93 93 undefined N/A 30.27 1025 10 16.09344 0 0
5:55 am 05:55 Cloudy 43 6 41 5 93 93 undefined N/A 30.27 1025 10 16.09344 0 0
6:15 am 06:15 Cloudy 43 6 41 5 93 93 undefined N/A 30.3 1026 10 16.09344 0 0
6:35 am 06:35 Cloudy 43 6 41 5 93 93 undefined N/A 30.3 1026 10 16.09344 0 0
6:55 am 06:55 Cloudy 43 6 41 5 93 93 undefined N/A 30.3 1026 10 16.09344 0 0
7:15 am 07:15 Cloudy 43 6 41 5 93 93 undefined N/A 30.3 1026 10 16.09344 0 0
7:35 am 07:35 Cloudy 43 6 41 5 93 93 undefined N/A 30.3 1026 10 16.09344 0 0
7:55 am 07:55 Cloudy 45 7 41 5 87 87 undefined N/A 30.3 1026 10 16.09344 0 0
8:15 am 08:15 Cloudy 45 7 41 5 87 87 undefined N/A 30.3 1026 10 16.09344 0 0
8:35 am 08:35 Cloudy 45 7 41 5 87 87 undefined N/A 30.3 1026 10 16.09344 0 0
8:55 am 08:55 Cloudy 45 7 41 5 87 87 undefined N/A 30.3 1026 10 16.09344 0 0
9:15 am 09:15 Cloudy 46 8 41 5 82 82 undefined N/A 30.3 1026 10 16.09344 0 0
9:35 am 09:35 Cloudy 48 9 41 5 76 76 undefined N/A 30.3 1026 10 16.09344 0 0
9:55 am 09:55 Cloudy 50 10 43 6 76 76 undefined N/A 30.27 1025 10 16.09344 0 0
10:15 am 10:15 Cloudy 52 11 43 6 72 72 undefined N/A 30.27 1025 10 16.09344 0 0
10:35 am 10:35 Cloudy 52 11 43 6 72 72 undefined N/A 30.27 1025 10 16.09344 0 0
10:55 am 10:55 Cloudy 54 12 43 6 67 67 undefined N/A 30.24 1024 10 16.09344 0 0
11:15 am 11:15 Cloudy 54 12 45 7 72 72 Calm 30.24 1024 10 16.09344 0 0
11:35 am 11:35 Cloudy 54 12 45 7 72 72 Calm 30.21 1023 10 16.09344 0 0
11:55 am 11:55 Cloudy 55 13 45 7 67 67 Calm 30.21 1023 10 16.09344 0 0
12:15 pm 12:15 Cloudy 55 13 45 7 67 67 S 7 11 30.21 1023 10 16.09344 0 0
12:35 pm 12:35 Cloudy 55 13 45 7 67 67 S 5 7 30.21 1023 10 16.09344 0 0
12:55 pm 12:55 Cloudy 57 14 45 7 63 63 S 5 7 30.18 1022 10 16.09344 0 0
1:15 pm 13:15 Cloudy 57 14 45 7 63 63 S 7 11 30.18 1022 10 16.09344 0 0
1:35 pm 13:35 Cloudy 57 14 45 7 63 63 S 8 13 30.15 1021 10 16.09344 0 0
1:55 pm 13:55 Cloudy 59 15 45 7 59 59 SSE 8 13 30.15 1021 10 16.09344 0 0
2:15 pm 14:15 Mostly Cloudy 59 15 45 7 59 59 S 6 9 30.15 1021 10 16.09344 0 0
2:35 pm 14:35 Partly Cloudy 59 15 45 7 59 59 SE 3 6 30.15 1021 10 16.09344 0 0
2:55 pm 14:55 Mostly Cloudy 59 15 46 8 63 63 ESE 3 6 30.15 1021 10 16.09344 0 0
3:15 pm 15:15 Cloudy 59 15 46 8 63 63 E 3 6 30.15 1021 10 16.09344 0 0
3:35 pm 15:35 Mostly Cloudy 59 15 46 8 63 63 ESE 5 7 30.15 1021 10 16.09344 0 0
3:55 pm 15:55 Partly Cloudy 59 15 46 8 63 63 Calm 30.15 1021 10 16.09344 0 0
4:15 pm 16:15 Sunny 57 14 46 8 67 67 Calm 30.15 1021 10 16.09344 0 0
4:35 pm 16:35 Partly Cloudy 57 14 46 8 67 67 Calm 30.15 1021 10 16.09344 0 0
4:55 pm 16:55 Partly Cloudy 55 13 46 8 72 72 Calm 30.15 1021 10 16.09344 0 0
5:15 pm 17:15 Mostly Cloudy 55 13 46 8 72 72 Calm 30.15 1021 10 16.09344 0 0
5:35 pm 17:35 Cloudy 54 12 46 8 77 77 Calm 30.15 1021 10 16.09344 0 0
5:55 pm 17:55 Partly Cloudy 54 12 46 8 77 77 N 5 7 30.15 1021 10 16.09344 0 0
6:15 pm 18:15 Partly Cloudy 52 11 46 8 82 82 Calm 30.21 1023 10 16.09344 0 0
6:35 pm 18:35 Mostly Cloudy 52 11 45 7 77 77 N 3 6 30.21 1023 10 16.09344 0 0
6:55 pm 18:55 Cloudy 52 11 45 7 77 77 N 7 11 30.21 1023 10 16.09344 0 0
7:15 pm 19:15 Cloudy 52 11 45 7 77 77 N 6 9 30.21 1023 10 16.09344 0 0
7:35 pm 19:35 Partly Cloudy 52 11 45 7 77 77 N 3 6 30.21 1023 10 16.09344 0 0
7:55 pm 19:55 Mostly Cloudy 52 11 45 7 77 77 undefined N/A 30.21 1023 10 16.09344 0 0
8:15 pm 20:15 Cloudy 52 11 45 7 77 77 NNE 6 9 30.21 1023 10 16.09344 0 0
8:35 pm 20:35 Cloudy 52 11 45 7 77 77 undefined N/A 30.21 1023 10 16.09344 0 0
8:55 pm 20:55 Mostly Cloudy 52 11 45 7 77 77 NNE 6 9 30.21 1023 10 16.09344 0 0
9:15 pm 21:15 Cloudy 50 10 45 7 82 82 undefined N/A 30.21 1023 10 16.09344 0 0
9:35 pm 21:35 Mostly Cloudy 50 10 45 7 82 82 undefined N/A 30.21 1023 10 16.09344 0 0
9:55 pm 21:55 Mostly Cloudy 50 10 45 7 82 82 undefined N/A 30.21 1023 10 16.09344 0 0
10:15 pm 22:15 Cloudy 50 10 45 7 82 82 undefined N/A 30.21 1023 10 16.09344 0 0
10:35 pm 22:35 Cloudy 50 10 45 7 82 82 undefined N/A 30.24 1024 10 16.09344 0 0
10:55 pm 22:55 Cloudy 50 10 45 7 82 82 undefined N/A 30.24 1024 10 16.09344 0 0
11:15 pm 23:15 Cloudy 50 10 45 7 82 82 undefined N/A 30.24 1024 10 16.09344 0 0
11:35 pm 23:35 Cloudy 50 10 43 6 76 76 undefined N/A 30.24 1024 10 16.09344 0 0
11:55 pm 23:55 Cloudy 50 10 43 6 76 76 undefined N/A 30.24 1024 10 16.09344 0 0

Powered by AerisWeather